GLO1405 SBPV-SBBR

Flight info

Callsign GLO1405
Flight time 2h 45m
Altitude 35000
Route ILTAR UZ40 DIBUX UZ98 ELISA
Aircraft B738/M-SDE2E3FGHIRWXY/LB1

Departure

Time 2026-04-25 15:18
Airport Governador Jorge Teixeira de Oliveira International Airport (SBPV)

Arrival

Time 2026-04-25 18:03
Airport Presidente Juscelino Kubitschek International Airport (SBBR)
Time Latitude Longitude Altitude Speed Heading
2026-04-25 14:44 -8.71420 -63.89934 299 ft 0 kts 86°
2026-04-25 15:07 -8.71421 -63.89946 300 ft 2 kts 86°
2026-04-25 15:08 -8.71422 -63.89963 299 ft 2 kts 86°
2026-04-25 15:08 -8.71423 -63.89980 299 ft 2 kts 86°
2026-04-25 15:08 -8.71424 -63.89996 299 ft 2 kts 86°
2026-04-25 15:08 -8.71425 -63.90013 299 ft 2 kts 86°
2026-04-25 15:09 -8.71427 -63.90029 300 ft 2 kts 64°
2026-04-25 15:09 -8.71437 -63.90042 301 ft 2 kts 40°
2026-04-25 15:09 -8.71467 -63.90054 301 ft 2 kts 359°
2026-04-25 15:10 -8.71478 -63.90053 300 ft 1 kts 358°
2026-04-25 15:10 -8.71481 -63.90053 300 ft 0 kts 358°
2026-04-25 15:11 -8.71474 -63.90053 300 ft 3 kts 358°
2026-04-25 15:12 -8.71337 -63.90061 299 ft 15 kts 356°
2026-04-25 15:12 -8.71231 -63.90067 302 ft 15 kts 356°
2026-04-25 15:12 -8.71128 -63.90073 301 ft 14 kts 356°
2026-04-25 15:12 -8.71096 -63.90075 299 ft 14 kts 356°
2026-04-25 15:13 -8.70937 -63.90085 300 ft 13 kts 356°
2026-04-25 15:13 -8.70757 -63.90095 300 ft 13 kts 356°
2026-04-25 15:13 -8.70647 -63.90102 300 ft 19 kts 357°
2026-04-25 15:14 -8.70509 -63.90110 299 ft 20 kts 356°
2026-04-25 15:14 -8.70373 -63.90118 299 ft 19 kts 356°
2026-04-25 15:14 -8.70242 -63.90126 299 ft 19 kts 357°
2026-04-25 15:14 -8.70114 -63.90133 299 ft 18 kts 356°
2026-04-25 15:15 -8.69999 -63.90142 300 ft 16 kts 349°
2026-04-25 15:15 -8.69928 -63.90187 299 ft 5 kts 313°
2026-04-25 15:15 -8.69923 -63.90193 301 ft 0 kts 313°
2026-04-25 15:16 -8.69895 -63.90224 299 ft 9 kts 311°
2026-04-25 15:17 -8.70016 -63.90284 302 ft 17 kts 176°
2026-04-25 15:17 -8.70374 -63.90262 301 ft 92 kts 176°
2026-04-25 15:17 -8.71273 -63.90206 299 ft 163 kts 176°
2026-04-25 15:18 -8.72544 -63.90086 780 ft 188 kts 174°
2026-04-25 15:18 -8.75334 -63.89900 2198 ft 232 kts 175°
2026-04-25 15:18 -8.77071 -63.89820 2630 ft 263 kts 175°
2026-04-25 15:19 -8.78822 -63.89332 3597 ft 262 kts 143°
2026-04-25 15:19 -8.79287 -63.88970 3973 ft 260 kts 134°
2026-04-25 15:19 -8.80407 -63.86224 5637 ft 260 kts 86°
2026-04-25 15:19 -8.80320 -63.84390 6555 ft 266 kts 99°
2026-04-25 15:20 -8.80948 -63.82642 7412 ft 271 kts 110°
2026-04-25 15:20 -8.81640 -63.80850 8283 ft 275 kts 109°
2026-04-25 15:20 -8.82308 -63.79015 9159 ft 279 kts 108°
2026-04-25 15:20 -8.82977 -63.77156 10011 ft 283 kts 108°
2026-04-25 15:21 -8.83667 -63.75246 10522 ft 299 kts 108°
2026-04-25 15:21 -8.84406 -63.73207 10700 ft 325 kts 108°
2026-04-25 15:21 -8.85218 -63.70976 10931 ft 348 kts 109°
2026-04-25 15:21 -8.86072 -63.68646 11503 ft 357 kts 109°
2026-04-25 15:22 -8.86944 -63.66278 12280 ft 360 kts 109°
2026-04-25 15:22 -8.87825 -63.63892 13078 ft 363 kts 109°
2026-04-25 15:22 -8.88710 -63.61495 13816 ft 366 kts 109°
2026-04-25 15:22 -8.89607 -63.59069 14422 ft 370 kts 109°
2026-04-25 15:23 -8.90514 -63.56612 14995 ft 375 kts 109°
2026-04-25 15:23 -8.91433 -63.54122 15562 ft 380 kts 109°
2026-04-25 15:23 -8.92363 -63.51604 16143 ft 384 kts 109°
2026-04-25 15:23 -8.93301 -63.49063 16699 ft 388 kts 109°
2026-04-25 15:24 -8.94250 -63.46492 17248 ft 392 kts 109°
2026-04-25 15:24 -8.95209 -63.43891 17802 ft 396 kts 109°
2026-04-25 15:24 -8.96164 -63.41301 18306 ft 400 kts 109°
2026-04-25 15:24 -8.96492 -63.40412 18464 ft 401 kts 109°
2026-04-25 15:25 -8.98122 -63.35991 19211 ft 406 kts 109°
2026-04-25 15:25 -8.99112 -63.33304 19646 ft 409 kts 109°
2026-04-25 15:25 -9.00108 -63.30601 20075 ft 411 kts 109°
2026-04-25 15:25 -9.01110 -63.27879 20502 ft 414 kts 109°
2026-04-25 15:26 -9.02118 -63.25142 20912 ft 417 kts 109°
2026-04-25 15:26 -9.03134 -63.22381 21328 ft 419 kts 109°
2026-04-25 15:26 -9.04156 -63.19604 21715 ft 422 kts 109°
2026-04-25 15:26 -9.05183 -63.16811 22083 ft 425 kts 109°
2026-04-25 15:27 -9.06217 -63.14001 22458 ft 427 kts 109°
2026-04-25 15:27 -9.07258 -63.11171 22826 ft 430 kts 109°
2026-04-25 15:27 -9.09342 -63.05502 23504 ft 435 kts 108°
2026-04-25 15:28 -9.10401 -63.02621 23797 ft 437 kts 109°
2026-04-25 15:28 -9.11462 -62.99731 24079 ft 439 kts 109°
2026-04-25 15:28 -9.12528 -62.96828 24344 ft 441 kts 109°
2026-04-25 15:28 -9.13599 -62.93911 24612 ft 443 kts 109°
2026-04-25 15:29 -9.14677 -62.90975 24873 ft 445 kts 109°
2026-04-25 15:29 -9.15756 -62.88035 25117 ft 447 kts 109°
2026-04-25 15:29 -9.16840 -62.85080 25362 ft 449 kts 109°
2026-04-25 15:29 -9.17914 -62.82151 25597 ft 451 kts 109°
2026-04-25 15:30 -9.19007 -62.79168 25833 ft 452 kts 109°
2026-04-25 15:30 -9.20103 -62.76181 26071 ft 454 kts 109°
2026-04-25 15:30 -9.21202 -62.73179 26301 ft 456 kts 109°
2026-04-25 15:30 -9.21950 -62.71140 26455 ft 457 kts 109°
2026-04-25 15:31 -9.23042 -62.68157 26679 ft 458 kts 109°
2026-04-25 15:31 -9.24528 -62.64098 26972 ft 460 kts 109°
2026-04-25 15:31 -9.25265 -62.62083 27115 ft 461 kts 109°
2026-04-25 15:31 -9.26382 -62.59032 27327 ft 462 kts 109°
2026-04-25 15:32 -9.27500 -62.55976 27537 ft 463 kts 109°
2026-04-25 15:32 -9.28619 -62.52914 27723 ft 465 kts 109°
2026-04-25 15:32 -9.29747 -62.49829 27904 ft 467 kts 109°
2026-04-25 15:33 -9.31996 -62.43675 28290 ft 469 kts 109°
2026-04-25 15:33 -9.33128 -62.40577 28478 ft 470 kts 109°
2026-04-25 15:33 -9.34263 -62.37467 28632 ft 471 kts 109°
2026-04-25 15:33 -9.35404 -62.34343 28815 ft 472 kts 109°
2026-04-25 15:34 -9.36543 -62.31221 29042 ft 472 kts 109°
2026-04-25 15:34 -9.37679 -62.28108 29322 ft 470 kts 109°
2026-04-25 15:34 -9.38812 -62.25003 29602 ft 469 kts 109°
2026-04-25 15:34 -9.39561 -62.22949 29760 ft 469 kts 109°
2026-04-25 15:35 -9.42181 -62.15758 30263 ft 467 kts 109°
2026-04-25 15:35 -9.43304 -62.12673 30462 ft 467 kts 109°
2026-04-25 15:35 -9.44428 -62.09587 30646 ft 466 kts 109°
2026-04-25 15:36 -9.46669 -62.03429 31019 ft 465 kts 109°
2026-04-25 15:36 -9.47790 -62.00349 31228 ft 464 kts 109°
2026-04-25 15:36 -9.48905 -61.97284 31406 ft 463 kts 109°
2026-04-25 15:37 -9.50004 -61.94259 31599 ft 463 kts 109°
2026-04-25 15:37 -9.51117 -61.91197 31767 ft 462 kts 109°
2026-04-25 15:37 -9.52229 -61.88138 31934 ft 462 kts 109°
2026-04-25 15:37 -9.53340 -61.85079 32085 ft 462 kts 109°
2026-04-25 15:38 -9.54447 -61.82029 32237 ft 462 kts 109°
2026-04-25 15:38 -9.55557 -61.78971 32419 ft 461 kts 109°
2026-04-25 15:38 -9.56665 -61.75916 32591 ft 461 kts 109°
2026-04-25 15:38 -9.57770 -61.72872 32707 ft 461 kts 109°
2026-04-25 15:39 -9.58863 -61.69858 32849 ft 461 kts 109°
2026-04-25 15:39 -9.59967 -61.66812 32970 ft 461 kts 109°
2026-04-25 15:39 -9.61073 -61.63763 33180 ft 459 kts 109°
2026-04-25 15:39 -9.62209 -61.60726 33327 ft 459 kts 110°
2026-04-25 15:40 -9.63381 -61.57708 33445 ft 460 kts 111°
2026-04-25 15:40 -9.64166 -61.55712 33526 ft 460 kts 111°
2026-04-25 15:40 -9.65743 -61.51718 33684 ft 460 kts 111°
2026-04-25 15:40 -9.66929 -61.48702 33825 ft 460 kts 111°
2026-04-25 15:41 -9.68113 -61.45681 33975 ft 459 kts 111°
2026-04-25 15:41 -9.69290 -61.42666 34114 ft 458 kts 110°
2026-04-25 15:41 -9.70462 -61.39656 34215 ft 458 kts 110°
2026-04-25 15:41 -9.71631 -61.36647 34340 ft 458 kts 110°
2026-04-25 15:42 -9.72782 -61.33687 34457 ft 457 kts 110°
2026-04-25 15:42 -9.73949 -61.30682 34559 ft 457 kts 110°
2026-04-25 15:42 -9.75114 -61.27681 34663 ft 457 kts 110°
2026-04-25 15:42 -9.76283 -61.24672 34767 ft 457 kts 110°
2026-04-25 15:43 -9.77445 -61.21679 34874 ft 456 kts 110°
2026-04-25 15:43 -9.78606 -61.18690 34955 ft 456 kts 110°
2026-04-25 15:43 -9.80927 -61.12706 34987 ft 460 kts 110°
2026-04-25 15:44 -9.83285 -61.06626 35001 ft 464 kts 110°
2026-04-25 15:44 -9.85656 -61.00506 34999 ft 468 kts 110°
2026-04-25 15:45 -9.88043 -60.94340 34991 ft 470 kts 110°
2026-04-25 15:45 -9.90034 -60.89194 34990 ft 472 kts 110°
2026-04-25 15:46 -9.92824 -60.81970 34993 ft 473 kts 110°
2026-04-25 15:46 -9.95229 -60.75728 34984 ft 474 kts 110°
2026-04-25 15:47 -9.97624 -60.69515 34987 ft 474 kts 110°
2026-04-25 15:47 -10.00030 -60.63270 34990 ft 475 kts 110°
2026-04-25 15:48 -10.02432 -60.57024 34982 ft 475 kts 110°
2026-04-25 15:48 -10.04834 -60.50777 34978 ft 475 kts 110°
2026-04-25 15:49 -10.07228 -60.44551 34979 ft 475 kts 110°
2026-04-25 15:49 -10.09621 -60.38325 34985 ft 475 kts 110°
2026-04-25 15:50 -10.12022 -60.32073 34979 ft 475 kts 110°
2026-04-25 15:50 -10.14424 -60.25809 34981 ft 475 kts 110°
2026-04-25 15:51 -10.16412 -60.20624 34986 ft 476 kts 110°
2026-04-25 15:51 -10.19226 -60.13279 34983 ft 476 kts 110°
2026-04-25 15:52 -10.21609 -60.07056 34983 ft 476 kts 110°
2026-04-25 15:52 -10.24012 -60.00778 34982 ft 477 kts 110°
2026-04-25 15:53 -10.26415 -59.94491 34984 ft 477 kts 110°
2026-04-25 15:53 -10.28823 -59.88192 34983 ft 478 kts 110°
2026-04-25 15:54 -10.31211 -59.81936 34984 ft 478 kts 110°
2026-04-25 15:54 -10.33615 -59.75639 34981 ft 478 kts 110°
2026-04-25 15:55 -10.36023 -59.69324 34989 ft 479 kts 110°
2026-04-25 15:55 -10.38430 -59.63008 34983 ft 479 kts 110°
2026-04-25 15:56 -10.40838 -59.56685 34984 ft 480 kts 109°
2026-04-25 15:56 -10.43245 -59.50360 34981 ft 480 kts 109°
2026-04-25 15:57 -10.45644 -59.44054 34977 ft 480 kts 109°
2026-04-25 15:57 -10.48052 -59.37715 34977 ft 480 kts 109°
2026-04-25 15:58 -10.50446 -59.31413 34979 ft 480 kts 109°
2026-04-25 15:58 -10.52977 -59.25118 34989 ft 482 kts 112°
2026-04-25 15:59 -10.55804 -59.18937 34980 ft 483 kts 114°
2026-04-25 15:59 -10.58674 -59.12755 34976 ft 483 kts 113°
2026-04-25 16:00 -10.60554 -59.08652 34982 ft 483 kts 113°
2026-04-25 16:00 -10.64312 -59.00361 34968 ft 483 kts 113°
2026-04-25 16:01 -10.67121 -58.94142 34986 ft 483 kts 113°
2026-04-25 16:01 -10.69927 -58.87926 34979 ft 484 kts 113°
2026-04-25 16:02 -10.72717 -58.81747 34979 ft 484 kts 113°
2026-04-25 16:02 -10.75527 -58.75521 34974 ft 484 kts 113°
2026-04-25 16:03 -10.78334 -58.69294 34976 ft 484 kts 113°
2026-04-25 16:03 -10.81142 -58.63063 34976 ft 484 kts 113°
2026-04-25 16:04 -10.83929 -58.56874 34970 ft 484 kts 113°
2026-04-25 16:04 -10.86729 -58.50652 34967 ft 484 kts 113°
2026-04-25 16:05 -10.89534 -58.44418 34974 ft 484 kts 112°
2026-04-25 16:06 -10.93739 -58.35060 34970 ft 484 kts 113°
2026-04-25 16:06 -10.96521 -58.28864 34972 ft 483 kts 112°
2026-04-25 16:07 -10.99324 -58.22618 34977 ft 483 kts 112°
2026-04-25 16:07 -11.02099 -58.16432 34971 ft 483 kts 112°
2026-04-25 16:08 -11.04896 -58.10200 34967 ft 483 kts 112°
2026-04-25 16:08 -11.07694 -58.03961 34970 ft 483 kts 112°
2026-04-25 16:09 -11.10463 -57.97780 34967 ft 482 kts 112°
2026-04-25 16:09 -11.13245 -57.91566 34974 ft 482 kts 112°
2026-04-25 16:10 -11.16029 -57.85341 34970 ft 482 kts 112°
2026-04-25 16:10 -11.18807 -57.79126 34972 ft 482 kts 112°
2026-04-25 16:11 -11.21565 -57.72957 34970 ft 482 kts 112°
2026-04-25 16:11 -11.24341 -57.66745 34967 ft 481 kts 112°
2026-04-25 16:12 -11.27118 -57.60527 34964 ft 481 kts 112°
2026-04-25 16:12 -11.29889 -57.54317 34961 ft 480 kts 112°
2026-04-25 16:13 -11.32652 -57.48121 34968 ft 480 kts 112°
2026-04-25 16:13 -11.35397 -57.41960 34959 ft 479 kts 112°
2026-04-25 16:14 -11.38152 -57.35773 34959 ft 479 kts 112°
2026-04-25 16:14 -11.40873 -57.29663 34940 ft 460 kts 112°
2026-04-25 16:14 -11.42179 -57.26732 34945 ft 445 kts 112°
2026-04-25 16:15 -11.43433 -57.23912 34951 ft 439 kts 112°
2026-04-25 16:15 -11.45945 -57.18256 34962 ft 436 kts 112°
2026-04-25 16:16 -11.48453 -57.12603 34969 ft 441 kts 112°
2026-04-25 16:16 -11.51002 -57.06855 34968 ft 448 kts 112°
2026-04-25 16:17 -11.53591 -57.01019 34968 ft 454 kts 112°
2026-04-25 16:17 -11.56181 -56.95177 34962 ft 456 kts 112°
2026-04-25 16:18 -11.58795 -56.89276 34966 ft 457 kts 112°
2026-04-25 16:18 -11.61404 -56.83384 34951 ft 456 kts 112°
2026-04-25 16:19 -11.64013 -56.77481 34950 ft 454 kts 112°
2026-04-25 16:19 -11.66603 -56.71611 34956 ft 452 kts 112°
2026-04-25 16:20 -11.70450 -56.62883 34955 ft 449 kts 112°
2026-04-25 16:21 -11.73861 -56.55138 34957 ft 447 kts 112°
2026-04-25 16:21 -11.76399 -56.49371 34951 ft 446 kts 112°
2026-04-25 16:22 -11.78936 -56.43603 34957 ft 445 kts 112°
2026-04-25 16:22 -11.81466 -56.37844 34959 ft 445 kts 112°
2026-04-25 16:23 -11.83997 -56.32081 34955 ft 445 kts 112°
2026-04-25 16:23 -11.86531 -56.26307 34955 ft 446 kts 112°
2026-04-25 16:24 -11.89053 -56.20558 34958 ft 447 kts 112°
2026-04-25 16:24 -11.91526 -56.14721 34956 ft 448 kts 111°
2026-04-25 16:25 -11.93933 -56.08840 34952 ft 448 kts 111°
2026-04-25 16:25 -11.96338 -56.02962 34951 ft 449 kts 111°
2026-04-25 16:26 -11.98744 -55.97110 34954 ft 449 kts 111°
2026-04-25 16:26 -12.01166 -55.91230 34956 ft 449 kts 111°
2026-04-25 16:27 -12.03588 -55.85345 34951 ft 448 kts 111°
2026-04-25 16:27 -12.06005 -55.79472 34956 ft 447 kts 111°
2026-04-25 16:28 -12.08409 -55.73623 34955 ft 446 kts 111°
2026-04-25 16:28 -12.10807 -55.67785 34953 ft 445 kts 111°
2026-04-25 16:29 -12.13190 -55.61979 34951 ft 444 kts 111°
2026-04-25 16:29 -12.15575 -55.56163 34957 ft 443 kts 111°
2026-04-25 16:30 -12.17960 -55.50345 34948 ft 443 kts 111°
2026-04-25 16:30 -12.20337 -55.44542 34958 ft 442 kts 111°
2026-04-25 16:31 -12.22697 -55.38775 34954 ft 442 kts 111°
2026-04-25 16:31 -12.25071 -55.32972 34956 ft 442 kts 111°
2026-04-25 16:32 -12.27442 -55.27171 34949 ft 442 kts 111°
2026-04-25 16:32 -12.29815 -55.21360 34952 ft 441 kts 111°
2026-04-25 16:33 -12.32172 -55.15584 34949 ft 441 kts 111°
2026-04-25 16:33 -12.34528 -55.09807 34947 ft 441 kts 111°
2026-04-25 16:34 -12.36890 -55.04012 34947 ft 441 kts 111°
2026-04-25 16:34 -12.38805 -54.99170 34943 ft 441 kts 110°
2026-04-25 16:35 -12.41523 -54.92099 34945 ft 441 kts 110°
2026-04-25 16:35 -12.43778 -54.86260 34948 ft 441 kts 110°
2026-04-25 16:36 -12.46028 -54.80448 34937 ft 441 kts 110°
2026-04-25 16:36 -12.48292 -54.74602 34942 ft 441 kts 110°
2026-04-25 16:37 -12.50549 -54.68772 34944 ft 440 kts 110°
2026-04-25 16:37 -12.52791 -54.62971 34942 ft 440 kts 110°
2026-04-25 16:38 -12.55038 -54.57142 34933 ft 440 kts 110°
2026-04-25 16:38 -12.57283 -54.51309 34938 ft 439 kts 110°
2026-04-25 16:39 -12.59508 -54.45525 34940 ft 439 kts 110°
2026-04-25 16:39 -12.61743 -54.39712 34940 ft 438 kts 110°
2026-04-25 16:40 -12.63976 -54.33898 34934 ft 438 kts 110°
2026-04-25 16:40 -12.66206 -54.28094 34940 ft 437 kts 110°
2026-04-25 16:41 -12.68422 -54.22326 34935 ft 437 kts 110°
2026-04-25 16:41 -12.71762 -54.13624 34938 ft 437 kts 110°
2026-04-25 16:42 -12.73967 -54.07869 34936 ft 437 kts 110°
2026-04-25 16:42 -12.76188 -54.02068 34943 ft 437 kts 110°
2026-04-25 16:43 -12.78413 -53.96254 34940 ft 437 kts 110°
2026-04-25 16:43 -12.80632 -53.90453 34938 ft 437 kts 110°
2026-04-25 16:44 -12.82840 -53.84674 34937 ft 437 kts 110°
2026-04-25 16:44 -12.85059 -53.78863 34938 ft 437 kts 110°
2026-04-25 16:45 -12.87272 -53.73062 34930 ft 437 kts 110°
2026-04-25 16:45 -12.89474 -53.67285 34937 ft 437 kts 110°
2026-04-25 16:46 -12.91684 -53.61482 34935 ft 437 kts 109°
2026-04-25 16:46 -12.93163 -53.57595 34939 ft 437 kts 110°
2026-04-25 16:47 -12.96087 -53.49889 34938 ft 436 kts 108°
2026-04-25 16:47 -12.98026 -53.43995 34940 ft 436 kts 106°
2026-04-25 16:48 -12.99861 -53.38059 34933 ft 436 kts 106°
2026-04-25 16:48 -13.01693 -53.32168 34936 ft 436 kts 106°
2026-04-25 16:49 -13.03545 -53.26273 34936 ft 435 kts 106°
2026-04-25 16:49 -13.05409 -53.20363 34935 ft 435 kts 107°
2026-04-25 16:50 -13.07271 -53.14458 34933 ft 435 kts 107°
2026-04-25 16:50 -13.09131 -53.08551 34931 ft 434 kts 107°
2026-04-25 16:51 -13.10988 -53.02648 34931 ft 434 kts 107°
2026-04-25 16:51 -13.12217 -52.98741 34931 ft 434 kts 106°
2026-04-25 16:52 -13.14681 -52.90893 34935 ft 433 kts 106°
2026-04-25 16:52 -13.16530 -52.85001 34932 ft 433 kts 106°
2026-04-25 16:53 -13.19286 -52.76207 34939 ft 433 kts 106°
2026-04-25 16:54 -13.21130 -52.70316 34932 ft 433 kts 106°
2026-04-25 16:54 -13.22968 -52.64438 34934 ft 433 kts 106°
2026-04-25 16:55 -13.24808 -52.58549 34928 ft 433 kts 106°
2026-04-25 16:55 -13.26649 -52.52651 34932 ft 433 kts 106°
2026-04-25 16:56 -13.28378 -52.46758 34927 ft 433 kts 101°
2026-04-25 16:56 -13.29328 -52.41708 34927 ft 432 kts 99°
2026-04-25 16:57 -13.30378 -52.35622 34935 ft 432 kts 99°
2026-04-25 16:57 -13.31458 -52.29538 34928 ft 433 kts 99°
2026-04-25 16:58 -13.32562 -52.23458 34935 ft 433 kts 99°
2026-04-25 16:58 -13.33672 -52.17364 34930 ft 433 kts 99°
2026-04-25 16:59 -13.34774 -52.11300 34933 ft 434 kts 99°
2026-04-25 16:59 -13.35880 -52.05206 34921 ft 434 kts 99°
2026-04-25 17:00 -13.37102 -51.99165 34931 ft 434 kts 102°
2026-04-25 17:00 -13.38489 -51.93132 34930 ft 434 kts 102°
2026-04-25 17:01 -13.39872 -51.87086 34922 ft 434 kts 102°
2026-04-25 17:01 -13.41219 -51.81083 34926 ft 433 kts 102°
2026-04-25 17:02 -13.42563 -51.75038 34918 ft 433 kts 102°
2026-04-25 17:02 -13.43906 -51.68986 34921 ft 433 kts 102°
2026-04-25 17:03 -13.45235 -51.62991 34921 ft 433 kts 102°
2026-04-25 17:03 -13.46572 -51.56956 34916 ft 433 kts 102°
2026-04-25 17:04 -13.47907 -51.50921 34913 ft 433 kts 102°
2026-04-25 17:04 -13.49243 -51.44874 34909 ft 433 kts 102°
2026-04-25 17:05 -13.50567 -51.38875 34914 ft 433 kts 102°
2026-04-25 17:05 -13.52569 -51.29792 34924 ft 438 kts 101°
2026-04-25 17:06 -13.54637 -51.23882 34922 ft 448 kts 117°
2026-04-25 17:06 -13.58094 -51.18522 34920 ft 452 kts 123°
2026-04-25 17:07 -13.61745 -51.13222 34916 ft 454 kts 123°
2026-04-25 17:07 -13.65376 -51.07900 34913 ft 454 kts 123°
2026-04-25 17:08 -13.68975 -51.02566 34914 ft 452 kts 123°
2026-04-25 17:08 -13.72531 -50.97270 34914 ft 450 kts 123°
2026-04-25 17:09 -13.76082 -50.91976 34912 ft 448 kts 123°
2026-04-25 17:09 -13.79614 -50.86709 34917 ft 446 kts 123°
2026-04-25 17:10 -13.83109 -50.81492 34917 ft 444 kts 123°
2026-04-25 17:10 -13.86614 -50.76259 34916 ft 443 kts 122°
2026-04-25 17:11 -13.90093 -50.71063 34917 ft 442 kts 122°
2026-04-25 17:11 -13.93580 -50.65851 34913 ft 442 kts 122°
2026-04-25 17:12 -13.97077 -50.60620 34911 ft 443 kts 122°
2026-04-25 17:12 -14.00562 -50.55403 34913 ft 444 kts 122°
2026-04-25 17:13 -14.03476 -50.51041 34908 ft 445 kts 122°
2026-04-25 17:13 -14.07578 -50.44893 34908 ft 446 kts 122°
2026-04-25 17:14 -14.11096 -50.39618 34907 ft 447 kts 122°
2026-04-25 17:14 -14.14600 -50.34361 34904 ft 447 kts 122°
2026-04-25 17:15 -14.18125 -50.29070 34905 ft 448 kts 122°
2026-04-25 17:15 -14.21651 -50.23773 34907 ft 448 kts 122°
2026-04-25 17:16 -14.25176 -50.18473 34905 ft 447 kts 122°
2026-04-25 17:16 -14.28673 -50.13213 34906 ft 447 kts 122°
2026-04-25 17:17 -14.32185 -50.07927 34907 ft 446 kts 122°
2026-04-25 17:17 -14.35685 -50.02655 34900 ft 444 kts 122°
2026-04-25 17:18 -14.39174 -49.97396 34903 ft 443 kts 122°
2026-04-25 17:18 -14.42658 -49.92143 34910 ft 443 kts 122°
2026-04-25 17:19 -14.46114 -49.86926 34912 ft 442 kts 122°
2026-04-25 17:19 -14.49584 -49.81686 34918 ft 441 kts 122°
2026-04-25 17:20 -14.53049 -49.76450 34916 ft 441 kts 122°
2026-04-25 17:20 -14.56516 -49.71206 34917 ft 441 kts 122°
2026-04-25 17:21 -14.59957 -49.66000 34925 ft 442 kts 122°
2026-04-25 17:21 -14.63427 -49.60744 34891 ft 443 kts 122°
2026-04-25 17:22 -14.65176 -49.58094 34513 ft 446 kts 122°
2026-04-25 17:22 -14.66331 -49.56344 34260 ft 442 kts 122°
2026-04-25 17:22 -14.68614 -49.52885 33681 ft 437 kts 122°
2026-04-25 17:22 -14.70064 -49.50151 33196 ft 432 kts 110°
2026-04-25 17:23 -14.71122 -49.47269 32789 ft 427 kts 109°
2026-04-25 17:23 -14.72120 -49.44388 32343 ft 424 kts 109°
2026-04-25 17:23 -14.73107 -49.41529 31921 ft 420 kts 109°
2026-04-25 17:23 -14.74103 -49.38691 31496 ft 417 kts 109°
2026-04-25 17:24 -14.75106 -49.35883 31088 ft 415 kts 109°
2026-04-25 17:24 -14.76111 -49.33098 30667 ft 412 kts 110°
2026-04-25 17:24 -14.77103 -49.30361 30263 ft 410 kts 110°
2026-04-25 17:24 -14.78106 -49.27599 29798 ft 408 kts 110°
2026-04-25 17:25 -14.79101 -49.24858 29338 ft 405 kts 110°
2026-04-25 17:25 -14.80087 -49.22139 28887 ft 402 kts 110°
2026-04-25 17:25 -14.81052 -49.19476 28456 ft 399 kts 110°
2026-04-25 17:25 -14.82042 -49.16809 28038 ft 396 kts 110°
2026-04-25 17:26 -14.83038 -49.14169 27626 ft 392 kts 110°
2026-04-25 17:26 -14.84029 -49.11550 27205 ft 390 kts 110°
2026-04-25 17:26 -14.85016 -49.08942 26793 ft 387 kts 110°
2026-04-25 17:26 -14.85996 -49.06347 26392 ft 386 kts 110°
2026-04-25 17:27 -14.86967 -49.03767 25981 ft 384 kts 110°
2026-04-25 17:27 -14.87934 -49.01196 25554 ft 383 kts 110°
2026-04-25 17:27 -14.88895 -48.98637 25154 ft 381 kts 110°
2026-04-25 17:27 -14.89207 -48.97806 25013 ft 381 kts 110°
2026-04-25 17:28 -14.90812 -48.93527 24318 ft 380 kts 110°
2026-04-25 17:28 -14.91756 -48.91008 23926 ft 379 kts 110°
2026-04-25 17:28 -14.92711 -48.88458 23506 ft 379 kts 110°
2026-04-25 17:28 -14.93663 -48.85918 23035 ft 378 kts 110°
2026-04-25 17:29 -14.94611 -48.83385 22622 ft 376 kts 110°
2026-04-25 17:29 -14.95553 -48.80868 22207 ft 374 kts 110°
2026-04-25 17:29 -14.96490 -48.78365 21795 ft 372 kts 110°
2026-04-25 17:29 -14.97410 -48.75905 21405 ft 369 kts 110°
2026-04-25 17:30 -14.98336 -48.73425 21007 ft 368 kts 110°
2026-04-25 17:30 -14.99259 -48.70954 20624 ft 366 kts 110°
2026-04-25 17:30 -15.00175 -48.68503 20227 ft 364 kts 110°
2026-04-25 17:30 -15.01087 -48.66061 19825 ft 364 kts 110°
2026-04-25 17:31 -15.02134 -48.63688 19425 ft 363 kts 124°
2026-04-25 17:31 -15.03807 -48.61785 19015 ft 363 kts 143°
2026-04-25 17:31 -15.05980 -48.60459 18621 ft 362 kts 152°
2026-04-25 17:31 -15.08241 -48.59288 18202 ft 363 kts 154°
2026-04-25 17:32 -15.10512 -48.58146 17763 ft 361 kts 154°
2026-04-25 17:32 -15.12741 -48.57026 17371 ft 359 kts 154°
2026-04-25 17:32 -15.14981 -48.55892 16981 ft 357 kts 154°
2026-04-25 17:32 -15.17203 -48.54756 16598 ft 354 kts 154°
2026-04-25 17:33 -15.19401 -48.53625 16233 ft 352 kts 154°
2026-04-25 17:33 -15.21588 -48.52495 15863 ft 350 kts 154°
2026-04-25 17:33 -15.23759 -48.51370 15488 ft 348 kts 154°
2026-04-25 17:33 -15.25926 -48.50246 15124 ft 346 kts 154°
2026-04-25 17:34 -15.28050 -48.49144 14758 ft 345 kts 154°
2026-04-25 17:34 -15.30198 -48.48028 14379 ft 344 kts 154°
2026-04-25 17:34 -15.32335 -48.46917 14002 ft 343 kts 154°
2026-04-25 17:34 -15.34467 -48.45809 13606 ft 342 kts 154°
2026-04-25 17:35 -15.36591 -48.44705 13227 ft 340 kts 154°
2026-04-25 17:35 -15.38705 -48.43606 12852 ft 339 kts 154°
2026-04-25 17:35 -15.40805 -48.42513 12481 ft 337 kts 154°
2026-04-25 17:35 -15.42897 -48.41425 12111 ft 335 kts 154°
2026-04-25 17:36 -15.44978 -48.40342 11758 ft 333 kts 154°
2026-04-25 17:36 -15.47042 -48.39268 11401 ft 331 kts 154°
2026-04-25 17:36 -15.49072 -48.38211 11052 ft 330 kts 154°
2026-04-25 17:36 -15.51121 -48.37142 10725 ft 328 kts 154°
2026-04-25 17:37 -15.53156 -48.36082 10408 ft 325 kts 154°
2026-04-25 17:37 -15.55160 -48.35038 10248 ft 318 kts 154°
2026-04-25 17:37 -15.57114 -48.34020 10106 ft 310 kts 154°
2026-04-25 17:37 -15.59019 -48.33029 9978 ft 302 kts 154°
2026-04-25 17:38 -15.60846 -48.32080 9949 ft 291 kts 154°
2026-04-25 17:38 -15.61453 -48.31766 9914 ft 288 kts 154°
2026-04-25 17:38 -15.64429 -48.30230 9509 ft 283 kts 154°
2026-04-25 17:38 -15.66183 -48.29324 9323 ft 280 kts 154°
2026-04-25 17:39 -15.67919 -48.28428 9175 ft 277 kts 154°
2026-04-25 17:39 -15.69632 -48.27542 8999 ft 272 kts 154°
2026-04-25 17:39 -15.71317 -48.26669 8833 ft 267 kts 154°
2026-04-25 17:39 -15.72966 -48.25816 8686 ft 262 kts 154°
2026-04-25 17:40 -15.74582 -48.24980 8537 ft 256 kts 154°
2026-04-25 17:40 -15.76157 -48.24165 8398 ft 248 kts 154°
2026-04-25 17:40 -15.77667 -48.23384 8277 ft 235 kts 154°
2026-04-25 17:40 -15.79168 -48.22918 8120 ft 222 kts 184°
2026-04-25 17:41 -15.80638 -48.23151 8044 ft 212 kts 191°
2026-04-25 17:41 -15.82065 -48.23407 7927 ft 202 kts 190°
2026-04-25 17:41 -15.83451 -48.23603 7816 ft 199 kts 187°
2026-04-25 17:41 -15.84825 -48.23729 7706 ft 198 kts 184°
2026-04-25 17:42 -15.86193 -48.23642 7560 ft 200 kts 160°
2026-04-25 17:42 -15.87329 -48.22830 7395 ft 201 kts 129°
2026-04-25 17:42 -15.87940 -48.21594 7273 ft 192 kts 102°
2026-04-25 17:42 -15.88025 -48.20216 7182 ft 191 kts 90°
2026-04-25 17:43 -15.88006 -48.18870 7071 ft 182 kts 88°
2026-04-25 17:43 -15.87947 -48.17563 6969 ft 179 kts 87°
2026-04-25 17:43 -15.87873 -48.16282 6839 ft 177 kts 86°
2026-04-25 17:43 -15.87797 -48.15053 6809 ft 166 kts 87°
2026-04-25 17:44 -15.87722 -48.13849 6672 ft 165 kts 86°
2026-04-25 17:44 -15.87645 -48.12656 6596 ft 175 kts 86°
2026-04-25 17:44 -15.87577 -48.11322 6396 ft 189 kts 86°
2026-04-25 17:44 -15.87474 -48.09908 6105 ft 199 kts 86°
2026-04-25 17:45 -15.87377 -48.08536 5986 ft 182 kts 86°
2026-04-25 17:45 -15.87348 -48.08116 5961 ft 176 kts 86°
2026-04-25 17:45 -15.87229 -48.06436 5794 ft 175 kts 86°
2026-04-25 17:45 -15.87129 -48.05189 5598 ft 172 kts 85°
2026-04-25 17:46 -15.87025 -48.03978 5338 ft 169 kts 84°
2026-04-25 17:46 -15.86920 -48.02371 5125 ft 168 kts 88°
2026-04-25 17:46 -15.86883 -48.01567 5004 ft 162 kts 88°
2026-04-25 17:46 -15.86822 -48.00410 4861 ft 158 kts 88°
2026-04-25 17:47 -15.86757 -47.99276 4700 ft 157 kts 87°
2026-04-25 17:47 -15.86692 -47.98151 4502 ft 158 kts 87°
2026-04-25 17:47 -15.86625 -47.97019 4276 ft 154 kts 86°
2026-04-25 17:47 -15.86557 -47.95920 4030 ft 151 kts 85°
2026-04-25 17:48 -15.86412 -47.93662 3684 ft 180 kts 85°
2026-04-25 17:48 -15.86288 -47.92287 3629 ft 201 kts 84°
2026-04-25 17:48 -15.86208 -47.90844 4061 ft 202 kts 85°
2026-04-25 17:49 -15.86008 -47.89361 4357 ft 219 kts 78°
2026-04-25 17:49 -15.85549 -47.87766 4526 ft 242 kts 69°
2026-04-25 17:49 -15.84867 -47.86089 4843 ft 262 kts 65°
2026-04-25 17:49 -15.84056 -47.84329 5251 ft 278 kts 59°
2026-04-25 17:50 -15.82650 -47.82921 5829 ft 288 kts 28°
2026-04-25 17:50 -15.80749 -47.82358 5969 ft 291 kts
2026-04-25 17:50 -15.78769 -47.82831 5994 ft 297 kts 330°
2026-04-25 17:50 -15.77240 -47.84260 5989 ft 305 kts 302°
2026-04-25 17:51 -15.76500 -47.86341 5993 ft 312 kts 277°
2026-04-25 17:51 -15.76507 -47.88641 5999 ft 325 kts 265°
2026-04-25 17:51 -15.76698 -47.90936 5970 ft 317 kts 265°
2026-04-25 17:51 -15.76874 -47.93174 6040 ft 300 kts 265°
2026-04-25 17:52 -15.77024 -47.95230 6322 ft 277 kts 265°
2026-04-25 17:52 -15.77118 -47.96562 6545 ft 272 kts 265°
2026-04-25 17:52 -15.77296 -47.99193 6938 ft 278 kts 266°
2026-04-25 17:52 -15.77426 -48.01189 6958 ft 279 kts 266°
2026-04-25 17:53 -15.77554 -48.03188 6957 ft 272 kts 266°
2026-04-25 17:53 -15.77676 -48.05100 6955 ft 260 kts 266°
2026-04-25 17:53 -15.77792 -48.06947 6947 ft 249 kts 266°
2026-04-25 17:53 -15.77903 -48.08719 6964 ft 248 kts 266°
2026-04-25 17:54 -15.78016 -48.10512 6937 ft 247 kts 266°
2026-04-25 17:54 -15.78126 -48.12288 6936 ft 245 kts 266°
2026-04-25 17:54 -15.78234 -48.14034 6920 ft 243 kts 266°
2026-04-25 17:54 -15.78345 -48.15788 6871 ft 241 kts 265°
2026-04-25 17:55 -15.78454 -48.17516 6847 ft 241 kts 266°
2026-04-25 17:55 -15.78562 -48.19265 6851 ft 242 kts 265°
2026-04-25 17:55 -15.78990 -48.20913 6868 ft 240 kts 240°
2026-04-25 17:55 -15.80032 -48.22274 6815 ft 242 kts 223°
2026-04-25 17:56 -15.81420 -48.23237 6716 ft 236 kts 200°
2026-04-25 17:56 -15.82953 -48.23650 6593 ft 226 kts 189°
2026-04-25 17:56 -15.84486 -48.23506 6469 ft 217 kts 163°
2026-04-25 17:56 -15.85806 -48.22851 6390 ft 205 kts 146°
2026-04-25 17:57 -15.86799 -48.21870 6383 ft 197 kts 127°
2026-04-25 17:57 -15.87511 -48.20653 6358 ft 194 kts 115°
2026-04-25 17:57 -15.87878 -48.19332 6365 ft 188 kts 95°
2026-04-25 17:57 -15.87904 -48.18460 6351 ft 182 kts 90°
2026-04-25 17:58 -15.87854 -48.16624 6347 ft 192 kts 89°
2026-04-25 17:58 -15.87809 -48.15264 6384 ft 191 kts 87°
2026-04-25 17:58 -15.87727 -48.13919 6378 ft 180 kts 86°
2026-04-25 17:58 -15.87641 -48.12629 6408 ft 181 kts 86°
2026-04-25 17:59 -15.87553 -48.11318 6387 ft 181 kts 86°
2026-04-25 17:59 -15.87469 -48.10030 6384 ft 180 kts 87°
2026-04-25 17:59 -15.87384 -48.08721 6269 ft 183 kts 87°
2026-04-25 17:59 -15.87302 -48.07431 6075 ft 170 kts 86°
2026-04-25 18:00 -15.87226 -48.06233 5835 ft 163 kts 87°
2026-04-25 18:00 -15.87149 -48.05065 5627 ft 161 kts 86°
2026-04-25 18:00 -15.87073 -48.03905 5440 ft 161 kts 87°
2026-04-25 18:00 -15.86997 -48.02730 5226 ft 163 kts 87°
2026-04-25 18:01 -15.86922 -48.01555 5019 ft 161 kts 87°
2026-04-25 18:01 -15.86846 -48.00398 4816 ft 160 kts 87°
2026-04-25 18:01 -15.86772 -47.99243 4602 ft 161 kts 87°
2026-04-25 18:01 -15.86700 -47.98095 4405 ft 161 kts 87°
2026-04-25 18:02 -15.86625 -47.96951 4219 ft 157 kts 86°
2026-04-25 18:02 -15.86546 -47.95818 4000 ft 156 kts 86°
2026-04-25 18:02 -15.86467 -47.94706 3799 ft 152 kts 88°
2026-04-25 18:02 -15.86404 -47.93617 3616 ft 150 kts 88°
2026-04-25 18:03 -15.86331 -47.92534 3476 ft 147 kts 87°
2026-04-25 18:03 -15.86283 -47.91613 3463 ft 84 kts 86°
2026-04-25 18:03 -15.86281 -47.91381 3462 ft 10 kts 127°
2026-04-25 18:03 -15.86328 -47.91379 3464 ft 7 kts 218°
2026-04-25 18:04 -15.86360 -47.91419 3463 ft 7 kts 235°
2026-04-25 18:04 -15.86386 -47.91461 3463 ft 7 kts 236°
2026-04-25 18:04 -15.86413 -47.91500 3462 ft 7 kts 235°
2026-04-25 18:04 -15.86438 -47.91539 3375 ft 6 kts 236°
2026-04-25 18:05 -15.86456 -47.91568 3464 ft 0 kts 237°
2026-04-25 18:05 -15.86457 -47.91568 3464 ft 0 kts 237°
2026-04-25 18:05 -15.86461 -47.91575 3464 ft 10 kts 239°
2026-04-25 18:06 -15.86552 -47.91629 3464 ft 16 kts 174°
2026-04-25 18:06 -15.86660 -47.91621 3464 ft 15 kts 175°
2026-04-25 18:06 -15.86754 -47.91614 3464 ft 13 kts 176°
2026-04-25 18:06 -15.86837 -47.91608 3464 ft 11 kts 175°
2026-04-25 18:07 -15.86894 -47.91636 3463 ft 9 kts 251°
2026-04-25 18:07 -15.86916 -47.91688 3463 ft 7 kts 211°
2026-04-25 18:07 -15.86958 -47.91692 3464 ft 5 kts 178°
2026-04-25 18:07 -15.86974 -47.91692 3464 ft 0 kts 177°
2026-04-25 18:08 -15.86986 -47.91691 3464 ft 13 kts 177°
2026-04-25 18:08 -15.87087 -47.91684 3464 ft 13 kts 176°
2026-04-25 18:08 -15.87171 -47.91678 3464 ft 12 kts 175°
2026-04-25 18:08 -15.87260 -47.91672 3463 ft 14 kts 176°
2026-04-25 18:09 -15.87316 -47.91732 3464 ft 12 kts 276°
2026-04-25 18:09 -15.87275 -47.91756 3464 ft 5 kts 357°
2026-04-25 18:09 -15.87265 -47.91756 3464 ft 0 kts 357°
2026-04-25 18:09 -15.87263 -47.91757 3462 ft 1 kts 357°
2026-04-25 18:10 -15.87262 -47.91757 3463 ft 0 kts 357°